Lake George, CO

9:59 AM MST on February 23, 2017 (GMT -0700)
Wilkerson Pass

Weather History for K4BM - November, 2013

Change the Weather History Date:

Friday, November 1, 2013

  Actual Average (KAFF) Record (KAFF)
Temperature  
Mean Temperature 26 °F -  
Max Temperature 32 °F 51 °F 71 °F (2008)
Min Temperature 19 °F 29 °F 15 °F (2002)
Degree Days  
Heating Degree Days 40    
Moisture  
Dew Point 14 °F    
Average Humidity 67    
Maximum Humidity 93    
Minimum Humidity 37    
Precipitation  
Precipitation 0.00 in - - ()
Sea Level Pressure  
Sea Level Pressure 30.22 in    
Wind  
Wind Speed 9 mph (WNW)    
Max Wind Speed 14 mph    
Max Gust Speed 32 mph    
Visibility 9 miles    
Events Snow    
Averages and records for this station are not official NWS values.
T = Trace of Precipitation, MM = Missing Value Source: NWS Daily Summary

Daily Weather History Graph

Daily Weather History Graph

Search for Another Location

Airport or City:

Trip Planner

Search our weather history database for the weather conditions in past years. The results will help you decide how hot, cold, wet, or windy it might be!

Date:

Astronomy

Nov. 01, 2013 Rise Set
Actual Time 7:29 AM MDT 6:00 PM MDT
Civil Twilight 7:02 AM MDT 6:28 PM MDT
Nautical Twilight 6:30 AM MDT 7:00 PM MDT
Astronomical Twilight 5:59 AM MDT 7:31 PM MDT
Moon 5:25 AM MDT (11/1) 4:54 PM MDT (11/1)
Length of Visible Light 11h 26m
Length of Day
10h 31m
Waning Crescent, 4% of the Moon is Illuminated
Nov 1
Waning Crescent
Nov 3
New
Nov 9
First Quarter
Nov 17
Full
Nov 25
Last Quarter

Hourly Weather History & Observations

Time (MDT) Temp. Windchill Dew Point Humidity Pressure Visibility Wind Dir Wind Speed Gust Speed Precip Events Conditions
12:02 AM 19.4 °F 10.4 °F 14.0 °F 80% 30.07 in 10.0 mi SSW 6.9 mph - N/A   Clear
12:22 AM 19.4 °F 11.5 °F 14.0 °F 80% 30.07 in 10.0 mi SW 5.8 mph - N/A   Scattered Clouds
12:42 AM 19.4 °F 8.6 °F 14.0 °F 80% 30.06 in 10.0 mi SSW 9.2 mph - N/A   Scattered Clouds
1:02 AM 19.4 °F 8.6 °F 14.0 °F 80% 30.06 in 10.0 mi WSW 9.2 mph - N/A   Scattered Clouds
1:22 AM 19.4 °F 7.9 °F 15.8 °F 86% 30.06 in 10.0 mi West 10.4 mph 19.6 mph N/A   Mostly Cloudy
1:42 AM 21.2 °F 11.7 °F 15.8 °F 80% 30.07 in 7.0 mi West 8.1 mph - N/A   Overcast
2:01 AM 21.2 °F 11.7 °F 15.8 °F 80% 30.07 in 10.0 mi WSW 8.1 mph - N/A   Overcast
2:21 AM 21.2 °F 13.6 °F 15.8 °F 80% 30.07 in 5.0 mi WSW 5.8 mph - N/A Snow Light Snow
2:42 AM 21.2 °F 13.6 °F 15.8 °F 80% 30.07 in 5.0 mi WSW 5.8 mph - N/A Snow Light Snow
3:02 AM 21.2 °F 13.6 °F 17.6 °F 86% 30.09 in 7.0 mi WSW 5.8 mph - N/A Snow Light Snow
3:22 AM 21.2 °F 11.7 °F 17.6 °F 86% 30.08 in 5.0 mi WNW 8.1 mph 16.1 mph N/A Snow Light Snow
3:41 AM 21.2 °F 8.9 °F 17.6 °F 86% 30.08 in 7.0 mi NNW 12.7 mph 21.9 mph N/A   Overcast
4:02 AM 21.2 °F 8.3 °F 17.6 °F 86% 30.07 in 10.0 mi NW 13.8 mph 26.5 mph N/A   Mostly Cloudy
4:22 AM 21.2 °F 10.1 °F 17.6 °F 86% 30.09 in 10.0 mi NW 10.4 mph 19.6 mph N/A   Mostly Cloudy
4:41 AM 21.2 °F 8.9 °F 17.6 °F 86% 30.08 in 4.0 mi NW 12.7 mph 21.9 mph N/A Snow Light Snow
5:01 AM 21.2 °F 10.1 °F 17.6 °F 86% 30.09 in 10.0 mi NW 10.4 mph 24.2 mph N/A   Scattered Clouds
5:21 AM 21.2 °F 12.6 °F 17.6 °F 86% 30.10 in 10.0 mi NW 6.9 mph 18.4 mph N/A   Mostly Cloudy
5:41 AM 21.2 °F 10.9 °F 17.6 °F 86% 30.11 in 2.0 mi WNW 9.2 mph 24.2 mph N/A Snow Light Snow
6:01 AM 21.2 °F 12.6 °F 19.4 °F 93% 30.12 in 4.0 mi WNW 6.9 mph 16.1 mph N/A Snow Light Snow
6:21 AM 21.2 °F 11.7 °F 19.4 °F 93% 30.12 in 7.0 mi NW 8.1 mph 20.7 mph N/A Snow Light Snow
6:41 AM 21.2 °F 10.9 °F 19.4 °F 93% 30.14 in 2.5 mi NW 9.2 mph 16.1 mph N/A Snow Light Snow
7:01 AM 21.2 °F 10.9 °F 19.4 °F 93% 30.14 in 1.2 mi NW 9.2 mph 17.3 mph N/A Snow Light Snow
7:21 AM 21.2 °F 11.7 °F 19.4 °F 93% 30.15 in 1.0 mi WNW 8.1 mph 16.1 mph N/A Snow Light Snow
7:41 AM 21.2 °F 16.4 °F 19.4 °F 93% 30.16 in 3.0 mi WNW 3.5 mph - N/A Snow Light Snow
8:01 AM 21.2 °F 11.7 °F 19.4 °F 93% 30.17 in 3.0 mi WNW 8.1 mph - N/A   Overcast
8:21 AM 21.2 °F 8.3 °F 17.6 °F 86% 30.17 in 7.0 mi WNW 13.8 mph 24.2 mph N/A   Mostly Cloudy
8:41 AM 21.2 °F 10.1 °F 15.8 °F 80% 30.19 in 10.0 mi WNW 10.4 mph 20.7 mph N/A   Scattered Clouds
9:01 AM 21.2 °F 11.7 °F 15.8 °F 80% 30.19 in 10.0 mi NW 8.1 mph 17.3 mph N/A   Scattered Clouds
9:21 AM 21.2 °F 13.6 °F 14.0 °F 74% 30.20 in 10.0 mi NW 5.8 mph 16.1 mph N/A   Scattered Clouds
9:41 AM 23.0 °F 14.7 °F 14.0 °F 68% 30.21 in 10.0 mi WNW 6.9 mph - N/A   Clear
10:01 AM 23.0 °F 13.1 °F 14.0 °F 68% 30.21 in 10.0 mi WNW 9.2 mph - N/A   Clear
10:21 AM 23.0 °F 11.7 °F 15.8 °F 74% 30.21 in 10.0 mi NNW 11.5 mph 23.0 mph N/A   Mostly Cloudy
10:40 AM 24.8 °F 16.1 °F 14.0 °F 64% 30.22 in 10.0 mi WNW 8.1 mph 21.9 mph N/A   Scattered Clouds
11:01 AM 26.6 °F 17.5 °F 14.0 °F 59% 30.23 in 10.0 mi West 9.2 mph 20.7 mph N/A   Clear
11:21 AM 28.4 °F 21.2 °F 14.0 °F 55% 30.23 in 10.0 mi NNW 6.9 mph 19.6 mph N/A   Scattered Clouds
11:41 AM 28.4 °F 19.7 °F 15.8 °F 59% 30.23 in 10.0 mi NNW 9.2 mph - N/A   Mostly Cloudy
12:01 PM 28.4 °F 21.2 °F 14.0 °F 55% 30.24 in 10.0 mi West 6.9 mph 18.4 mph N/A   Scattered Clouds
12:20 PM 28.4 °F 19.1 °F 12.2 °F 51% 30.24 in 10.0 mi NW 10.4 mph 21.9 mph N/A   Clear
12:41 PM 30.2 °F 22.6 °F 14.0 °F 51% 30.24 in 10.0 mi WNW 8.1 mph 25.3 mph N/A   Scattered Clouds
1:01 PM 30.2 °F 24.3 °F 12.2 °F 47% 30.24 in 10.0 mi WNW 5.8 mph 18.4 mph N/A   Clear
1:21 PM 30.2 °F 20.8 °F 12.2 °F 47% 30.23 in 10.0 mi WNW 11.5 mph 18.4 mph N/A   Clear
1:41 PM 30.2 °F 21.9 °F 14.0 °F 51% 30.23 in 10.0 mi West 9.2 mph 20.7 mph N/A   Clear
2:01 PM 30.2 °F 19.8 °F 14.0 °F 51% 30.23 in 10.0 mi WNW 13.8 mph 23.0 mph N/A   Clear
2:21 PM 32.0 °F 23.0 °F 14.0 °F 48% 30.24 in 10.0 mi WNW 11.5 mph 25.3 mph N/A   Clear
2:41 PM 30.2 °F 26.7 °F 12.2 °F 47% 30.26 in 10.0 mi West 3.5 mph 26.5 mph N/A   Clear
3:01 PM 30.2 °F 24.3 °F 14.0 °F 51% 30.26 in 10.0 mi NW 5.8 mph - N/A   Clear
3:20 PM 28.4 °F 18.0 °F 12.2 °F 51% 30.26 in 10.0 mi NW 12.7 mph 23.0 mph N/A   Scattered Clouds
3:41 PM 28.4 °F 19.1 °F 12.2 °F 51% 30.27 in 10.0 mi NW 10.4 mph 20.7 mph N/A   Clear
4:01 PM 30.2 °F 23.4 °F 12.2 °F 47% 30.27 in 10.0 mi West 6.9 mph 16.1 mph N/A   Clear
4:21 PM 28.4 °F 20.4 °F 14.0 °F 55% 30.28 in 10.0 mi NW 8.1 mph - N/A   Clear
4:40 PM 28.4 °F 18.5 °F 12.2 °F 51% 30.30 in 10.0 mi NW 11.5 mph 23.0 mph N/A   Clear
5:01 PM 26.6 °F 19.1 °F 12.2 °F 55% 30.30 in 10.0 mi NW 6.9 mph 19.6 mph N/A   Clear
5:21 PM 26.6 °F 20.0 °F 12.2 °F 55% 30.31 in 10.0 mi NNW 5.8 mph - N/A   Clear
5:41 PM 24.8 °F 17.9 °F 14.0 °F 64% 30.31 in 10.0 mi NNW 5.8 mph 16.1 mph N/A   Clear
6:01 PM 23.0 °F 13.1 °F 14.0 °F 68% 30.31 in 10.0 mi NNW 9.2 mph - N/A   Clear
6:20 PM 23.0 °F 13.9 °F 14.0 °F 68% 30.31 in 10.0 mi NW 8.1 mph 17.3 mph N/A   Clear
6:41 PM 23.0 °F 10.6 °F 12.2 °F 63% 30.32 in 10.0 mi NW 13.8 mph 20.7 mph N/A   Clear
7:01 PM 23.0 °F 11.7 °F 12.2 °F 63% 30.32 in 10.0 mi NNW 11.5 mph 25.3 mph N/A   Clear
7:21 PM 23.0 °F 12.4 °F 10.4 °F 59% 30.33 in 10.0 mi NNW 10.4 mph 24.2 mph N/A   Clear
7:41 PM 23.0 °F 10.6 °F 10.4 °F 59% 30.34 in 10.0 mi NW 13.8 mph 27.6 mph N/A   Clear
8:01 PM 23.0 °F 12.4 °F 10.4 °F 59% 30.34 in 10.0 mi NW 10.4 mph 20.7 mph N/A   Clear
8:21 PM 23.0 °F 12.4 °F 10.4 °F 59% 30.34 in 10.0 mi NW 10.4 mph 19.6 mph N/A   Clear
8:41 PM 23.0 °F 11.7 °F 10.4 °F 59% 30.35 in 10.0 mi WNW 11.5 mph 20.7 mph N/A   Clear
9:00 PM 23.0 °F 13.1 °F 8.6 °F 54% 30.36 in 10.0 mi NW 9.2 mph 19.6 mph N/A   Clear
9:21 PM 23.0 °F 13.1 °F 8.6 °F 54% 30.36 in 10.0 mi NNW 9.2 mph 17.3 mph N/A   Scattered Clouds
9:41 PM 23.0 °F 13.9 °F 5.0 °F 46% 30.37 in 10.0 mi NNW 8.1 mph 17.3 mph N/A   Clear
10:01 PM 23.0 °F 11.1 °F 5.0 °F 46% 30.36 in 10.0 mi NW 12.7 mph 18.4 mph N/A   Clear
10:20 PM 26.6 °F 16.2 °F 3.2 °F 37% 30.36 in 10.0 mi NNW 11.5 mph 32.2 mph N/A   Clear
10:41 PM 26.6 °F 16.2 °F 3.2 °F 37% 30.35 in 10.0 mi WNW 11.5 mph 23.0 mph N/A   Clear
11:01 PM 23.0 °F 10.6 °F 8.6 °F 54% 30.35 in 10.0 mi WNW 13.8 mph 19.6 mph N/A   Clear
11:21 PM 23.0 °F 11.7 °F 5.0 °F 46% 30.33 in 10.0 mi WNW 11.5 mph 21.9 mph N/A   Clear
11:40 PM 23.0 °F 11.1 °F 6.8 °F 50% 30.34 in 10.0 mi West 12.7 mph 24.2 mph N/A   Clear